Dewpoint
59 59 58 59 60 60 59 58 58 54 51 52 53 54 54 55 54 53 50 50 51 50 48 48 48 49 48 48 48 51 51 51 51 50 49 49 47 47 46 43 41 42 41 44 42 44 42 42 43 45 47 46 43 42 39 38 40 41 41 39 41 44 44 45 42 39 40 39 36 30 34 36 30 32 33 39 42 38 38 40 43 46 42 42 42
59 58 58 59 59 60 60 59 58 56 53 51 53 53 49 51 55 54 53 50 49 47 46 48 48 49 47 47 47 47 49 49 50 51 48 49 50 49 48 45 45 45 47 43 43 44 47 44 43 46 46 44 48 40 37 38 35 34 37 40 38 41 44 41 38 38 38 39 35 32 34 36 30 33 41 43 42 40 32 35 37 34 36 40 42
58 59 58 59 59 59 60 58 58 57 55 51 51 50 50 50 52 55 54 50 48 47 46 48 47 46 46 47 47 47 48 49 52 51 51 50 48 51 50 49 48 48 47 44 42 45 46 46 46 46 47 48 47 46 45 43 39 39 43 42 43 44 41 41 42 41 40 38 40 34 39 39 41 33 34 38 40 37 35 37 36 34 35 38 38
58 59 58 58 58 59 60 59 59 58 56 54 54 51 51 53 52 54 53 52 49 49 48 46 46 46 47 46 46 48 48 50 50 50 49 50 50 50 51 52 50 50 48 44 43 44 47 48 48 47 47 47 47 46 46 46 45 43 45 46 46 45 47 45 43 43 42 40 41 31 39 42 38 35 34 35 37 37 37 38 37 36 37 37 39
58 57 57 58 59 58 58 58 58 59 59 56 55 53 51 52 52 48 51 50 50 50 50 46 46 45 48 45 46 47 48 49 50 50 52 52 51 52 51 50 51 51 51 51 53 50 49 49 48 48 46 48 46 46 46 48 41 43 41 41 42 45 46 44 44 43 43 43 43 43 43 38 36 40 36 36 37 37 37 38 37 37 39 39 39
56 56 56 57 58 58 59 59 58 57 58 57 55 55 52 50 50 50 50 49 49 50 50 48 46 45 46 45 45 46 47 49 50 51 52 53 53 53 53 53 53 51 52 52 51 52 53 51 50 50 48 49 49 48 49 47 44 48 47 43 41 44 48 46 46 46 43 42 44 44 45 42 40 42 40 39 41 39 39 39 40 40 40 41 41
57 57 57 57 57 57 58 58 59 59 58 58 58 55 54 52 48 46 49 50 50 50 49 48 49 46 46 46 45 48 48 49 51 52 54 53 53 53 54 55 54 54 53 52 52 52 52 52 53 53 52 51 53 53 51 50 52 49 52 49 46 50 48 45 44 45 46 45 44 44 43 43 44 42 37 40 40 38 39 42 42 40 42 41 41
57 57 57 57 57 57 58 58 58 62 59 58 57 57 56 54 52 51 48 49 50 49 48 47 48 46 49 49 50 50 50 50 52 53 53 54 55 55 56 56 54 53 54 53 55 54 53 53 53 52 52 50 52 52 52 52 50 49 50 48 50 51 50 47 46 44 45 46 44 43 42 43 43 44 40 40 41 41 41 43 43 42 42 42 41
55 55 56 57 57 56 58 59 58 58 57 58 57 55 56 57 57 55 53 53 52 49 48 49 51 51 50 52 52 54 54 55 54 54 54 53 54 54 54 54 55 55 55 56 56 55 55 55 54 54 54 56 51 51 51 51 51 49 49 47 47 47 47 45 45 44 46 44 44 45 43 43 45 45 42 42 42 43 44 44 43 42 40 40 39
53 53 54 56 56 56 56 57 57 58 57 57 58 57 57 57 56 56 57 57 57 58 52 50 49 54 51 52 53 55 57 57 60 52 52 56 55 54 56 57 56 57 58 56 58 57 55 55 55 57 53 51 49 47 46 47 49 52 50 47 45 45 45 44 43 44 45 45 44 43 43 43 42 45 44 44 44 45 43 43 41 40 41 40 40
53 51 52 53 54 55 56 56 56 55 56 56 57 57 57 57 58 58 58 58 58 58 60 55 52 58 58 54 55 57 58 57 47 48 49 49 55 57 56 57 56 57 57 57 57 58 56 54 56 56 55 51 51 45 44 44 44 44 40 41 44 55 46 45 46 46 44 45 45 44 43 44 44 45 45 43 44 43 41 42 42 41 39 38 36
52 52 52 53 53 52 53 54 54 55 56 55 54 54 55 56 57 57 58 58 58 58 57 56 56 56 57 57 59 59 58 49 44 47 47 46 47 56 57 59 58 57 57 56 57 55 55 53 55 56 55 54 54 52 48 43 42 38 37 37 36 36 38 50 48 46 46 44 44 45 44 44 44 44 43 44 43 42 42 42 41 39 39 38 37
49 51 51 51 53 54 53 53 53 54 54 54 54 55 55 55 55 56 57 58 58 57 56 57 58 58 58 56 57 57 57 46 42 43 43 43 42 47 57 54 57 56 56 57 56 57 54 54 56 57 55 54 53 53 52 49 39 38 38 38 38 37 34 34 36 46 47 45 45 44 44 45 43 44 47 46 45 43 42 40 40 40 39 37 36
41 42 43 45 46 47 48 50 52 53 54 54 54 54 55 56 57 56 58 58 57 58 59 58 57 57 57 57 57 57 57 42 41 41 43 41 41 43 57 57 57 56 56 56 54 53 54 54 54 55 55 54 54 53 52 51 47 43 43 41 41 42 36 35 35 35 38 45 46 44 46 47 44 46 46 45 44 42 41 40 41 40 39 38 39
39 40 40 39 39 39 39 40 43 45 48 51 53 55 55 57 57 57 57 57 56 56 57 57 58 57 57 57 56 55 58 39 40 40 41 40 41 40 57 58 57 55 52 52 51 51 50 50 50 50 54 54 53 51 51 50 48 47 44 43 42 40 41 42 45 47 45 45 44 45 47 47 47 45 45 43 42 40 39 39 39 39 39 39 38
39 40 39 38 39 38 38 39 41 40 41 43 45 47 51 54 56 57 55 55 55 56 56 56 56 56 56 56 55 57 55 39 39 39 39 40 39 51 57 56 53 48 49 48 47 48 49 49 48 47 47 52 46 42 45 51 49 46 45 43 43 44 46 36 37 38 43 44 45 45 43 44 39 42 40 37 36 37 36 34 34 33 31 30 30
36 39 40 40 41 41 40 39 40 40 40 41 40 42 45 48 49 50 51 51 51 52 52 52 52 53 53 55 55 56 57 42 39 39 39 39 41 55 54 46 45 47 48 46 49 52 52 52 53 47 52 51 41 39 41 43 48 46 44 44 46 46 43 41 38 35 35 35 35 35 34 34 34 34 34 34 38 37 32 30 30 31 29 28 29
34 35 36 37 38 38 40 39 40 41 41 40 40 41 42 45 46 48 48 48 49 50 51 50 51 52 52 53 54 56 57 47 38 39 39 39 45 56 48 45 46 47 47 47 49 47 47 45 49 50 53 48 36 37 38 44 47 45 46 46 46 45 45 43 41 42 35 34 34 34 33 33 33 35 35 35 35 36 34 31 34 32 32 32 30
33 33 35 34 34 36 38 40 40 41 41 41 44 44 43 44 44 47 46 46 47 48 48 49 49 50 51 51 53 53 55 47 38 38 39 40 43 55 50 43 48 48 47 47 48 47 47 43 41 44 46 42 36 37 37 42 48 46 46 46 44 44 46 44 44 43 42 42 41 40 39 37 38 38 39 35 36 37 37 37 36 35 34 34 34
32 33 33 34 34 34 37 38 40 41 41 43 44 44 44 43 45 46 45 43 43 44 42 41 44 44 47 49 51 50 53 53 44 37 39 40 40 54 48 44 47 48 48 46 46 46 45 42 40 35 36 36 35 35 35 36 45 48 46 45 44 44 45 44 45 43 42 41 41 41 41 41 42 42 42 42 38 38 39 39 38 36 34 31 32
34 33 32 31 32 32 33 36 38 40 41 42 42 43 43 43 44 44 43 42 41 41 41 41 40 41 44 43 43 44 48 51 47 36 38 38 39 40 50 45 46 47 47 45 44 45 43 41 39 36 35 35 35 35 35 35 37 46 45 43 40 43 38 42 42 32 37 37 38 38 39 38 39 38 37 35 38 40 39 39 39 35 33 31 28
36 34 31 29 30 32 34 35 38 39 39 40 42 42 42 43 43 44 42 41 41 40 39 38 37 38 40 39 41 47 52 52 51 38 37 38 39 37 50 47 48 47 46 45 43 42 42 41 39 36 34 34 34 35 35 35 35 39 39 33 32 33 40 36 38 39 39 38 35 34 35 32 30 32 31 32 31 31 34 34 33 35 33 32 30
34 34 33 34 34 34 34 35 36 38 39 38 39 41 41 41 43 43 43 44 42 41 41 39 39 38 39 38 40 45 49 49 44 48 38 38 39 38 38 45 41 54 43 42 43 40 41 39 36 36 34 34 34 34 34 34 34 35 32 32 31 30 32 33 36 37 34 34 35 33 31 31 32 31 31 31 33 36 35 35 36 35 35 33 33
34 34 35 36 36 34 32 32 33 34 36 37 36 37 38 40 40 42 42 41 41 40 41 41 39 38 39 38 41 42 44 44 42 43 43 36 37 37 37 37 40 45 44 42 42 41 39 38 36 34 34 34 34 34 34 34 33 32 32 32 31 32 33 35 33 35 33 31 31 31 32 31 31 30 31 34 32 34 34 34 34 34 34 34 33
35 34 34 34 34 32 34 34 34 33 34 35 36 36 36 37 38 39 40 41 40 40 40 44 41 38 37 39 38 40 44 44 46 41 38 36 36 36 35 36 36 38 49 44 43 42 37 34 34 34 33 33 32 32 32 32 32 32 32 32 34 34 35 33 32 34 31 30 30 32 31 30 31 32 34 33 33 33 33 34 34 33 33 33 34
34 34 33 33 33 32 33 34 33 33 34 33 34 33 34 33 34 35 37 38 40 42 41 40 44 39 37 39 39 42 42 42 46 44 39 38 36 35 36 36 36 36 37 36 34 33 33 34 33 33 33 33 36 35 33 33 33 32 32 34 36 34 31 30 32 32 31 29 29 29 30 30 30 33 33 31 30 30 31 31 31 31 32 32 31
33 34 35 35 35 34 35 34 34 35 35 32 31 31 30 32 32 32 35 36 38 40 42 46 46 42 43 38 42 39 39 41 43 44 43 42 41 38 39 38 35 35 35 34 33 33 34 34 32 33 33 33 34 33 33 33 33 33 32 33 35 32 31 32 30 30 30 30 30 30 30 30 32 31 29 29 30 30 32 31 30 30 31 30 30
33 33 34 34 33 33 33 31 31 31 33 33 33 31 30 32 31 31 29 33 36 41 41 43 43 46 48 50 42 39 39 41 42 44 43 43 41 40 41 40 40 39 36 36 34 33 34 34 35 37 37 35 33 32 31 33 34 33 34 32 31 31 29 30 30 30 32 32 30 31 30 33 30 29 31 30 31 31 32 31 31 30 31 31 30
34 34 34 33 33 33 34 32 32 32 31 31 33 34 32 31 31 32 34 31 35 37 43 43 44 45 48 49 50 46 41 41 43 40 43 39 40 42 42 41 41 39 37 34 35 36 33 34 33 34 33 32 31 34 33 33 31 31 34 33 32 33 32 29 30 28 30 30 29 30 31 31 30 30 31 31 31 30 31 30 31 31 31 31 31
35 34 34 33 33 33 33 31 32 32 28 28 31 33 32 33 34 33 33 37 34 36 37 45 48 46 49 50 49 49 49 50 41 38 38 37 38 38 38 38 37 37 35 34 35 34 33 33 33 31 33 32 32 31 30 29 30 30 30 25 26 27 25 26 27 28 26 27 28 29 30 29 28 29 30 30 30 31 31 31 31 31 31 31 30
34 34 34 34 34 34 34 34 33 32 32 33 31 30 33 32 32 33 33 33 34 35 36 35 34 35 44 46 50 37 40 38 39 41 40 38 37 37 36 36 35 34 34 34 33 32 32 31 32 32 32 32 30 29 28 28 27 26 27 27 29 27 24 25 25 25 25 26 28 28 28 28 30 29 29 30 30 30 30 31 30 31 31 31 30
34 34 34 34 34 34 35 34 34 34 33 33 32 33 29 30 33 35 34 34 35 35 35 36 35 35 36 40 43 46 37 37 39 38 37 36 35 35 35 34 34 34 33 33 32 32 31 31 31 31 30 29 28 26 27 28 26 26 26 25 25 26 24 24 25 25 27 29 26 26 27 28 29 29 30 30 29 30 30 30 30 31 31 30 30
35 35 34 34 34 34 34 35 35 35 34 33 34 33 32 31 30 30 38 34 35 35 35 36 36 35 35 34 35 39 38 37 36 36 36 35 35 34 34 34 33 33 33 32 32 31 32 32 30 31 29 26 27 27 27 29 26 26 26 26 24 25 25 27 26 26 25 26 28 26 26 28 28 28 29 29 30 29 30 30 30 30 30 30 30
35 35 35 35 35 35 35 35 35 35 34 34 33 33 32 33 32 31 30 36 39 37 34 34 35 35 34 34 35 35 35 35 35 35 34 34 34 34 34 34 33 33 32 33 32 30 31 30 29 29 28 27 27 28 29 28 26 26 26 26 28 27 25 24 22 23 25 26 27 26 27 28 29 28 29 29 30 30 29 29 30 30 30 30 31
35 34 33 34 36 36 36 35 35 35 35 34 34 34 34 34 33 32 31 31 34 37 37 38 36 38 36 34 34 34 34 34 35 34 34 34 34 33 33 34 30 32 33 35 33 31 30 30 29 29 28 28 29 29 26 29 26 27 26 28 26 24 22 22 21 25 28 27 27 27 27 28 29 29 28 28 29 29 29 29 30 30 30 31 31
36 36 37 37 38 39 39 37 37 36 35 34 35 35 34 34 33 32 32 32 32 35 41 39 38 35 34 34 33 33 34 34 34 34 33 33 33 32 31 29 29 30 31 33 31 32 30 30 29 29 29 28 30 28 27 28 28 26 28 26 24 23 21 21 23 26 28 29 27 26 27 27 28 28 28 28 30 29 29 29 29 30 31 32 31
36 36 37 39 37 38 37 37 37 37 35 34 35 34 34 34 34 33 33 33 34 39 42 39 37 36 35 35 34 33 33 33 33 33 33 32 32 32 32 30 30 31 31 33 31 31 31 29 30 30 30 29 27 27 29 29 28 28 27 24 23 24 20 21 23 26 27 27 26 27 28 26 27 28 28 28 28 29 29 30 30 31 31 32 31
37 37 36 37 37 36 35 35 36 35 36 37 36 35 34 34 34 33 34 35 34 35 41 41 37 35 33 34 36 35 33 33 33 32 32 32 32 32 32 31 33 31 32 33 31 30 29 29 30 31 30 29 29 28 28 28 27 26 27 25 24 21 22 21 25 28 29 27 25 26 26 26 27 28 28 28 29 29 29 29 29 30 31 31 31
36 34 34 33 34 35 35 35 36 38 37 37 36 35 34 34 34 34 35 35 33 35 37 41 41 35 34 34 35 35 33 33 31 31 31 30 29 31 32 31 28 27 29 29 29 29 29 28 29 29 29 29 28 28 28 29 26 27 25 23 21 18 19 21 23 25 26 26 26 26 26 26 27 28 28 28 29 29 29 29 30 30 31 31 31
36 35 35 33 34 34 35 35 36 36 35 36 37 36 35 35 35 35 35 35 34 34 34 37 35 36 35 35 34 34 33 30 31 30 29 28 28 32 36 31 30 29 30 29 29 29 31 28 28 30 29 29 27 26 27 27 27 23 22 19 19 19 20 22 24 25 26 27 26 26 26 27 27 28 29 29 29 29 30 30 30 31 31 32 32
35 35 34 34 33 34 34 35 36 36 36 35 35 36 37 35 36 35 36 35 33 34 34 38 40 35 35 33 33 32 31 30 32 30 28 29 30 31 30 30 30 29 29 28 29 29 28 29 29 29 30 28 28 27 27 25 23 21 19 19 19 20 20 23 25 26 27 28 28 28 28 29 29 29 29 29 31 30 30 30 30 30 31 32 32
35 34 34 34 34 34 35 35 35 35 35 34 36 36 35 35 37 37 36 35 32 33 36 37 33 32 31 31 31 32 32 33 32 30 34 33 34 32 30 30 30 29 29 28 27 29 29 29 28 27 26 27 26 25 23 22 21 20 19 19 20 21 21 23 25 27 28 28 28 29 29 29 28 28 29 31 29 29 30 30 31 31 31 31 31
34 34 34 34 34 34 34 35 35 35 35 36 36 35 35 37 39 36 35 33 32 32 35 32 32 31 29 30 31 30 32 34 31 34 33 30 32 32 33 30 30 30 29 28 28 28 27 26 26 26 26 25 24 23 22 21 21 21 20 21 21 21 24 24 25 26 28 28 29 29 29 28 28 28 29 29 29 30 31 31 31 31 30 31 31
33 33 33 33 33 34 34 34 34 34 36 35 35 34 36 39 40 38 33 33 32 33 31 32 31 29 30 32 31 30 30 32 35 36 37 33 33 31 32 31 31 29 29 27 27 28 26 25 25 26 28 26 26 26 23 22 22 22 21 22 23 23 24 25 26 27 28 28 29 29 28 28 28 28 29 29 30 30 31 31 31 30 31 31 31
34 33 32 32 32 33 33 34 35 34 33 35 39 41 36 43 35 32 32 32 32 33 32 31 30 30 30 30 30 29 30 30 31 32 33 32 32 32 32 31 30 29 27 27 28 28 27 26 27 26 25 24 25 25 24 24 26 23 23 23 24 23 25 26 27 27 28 29 28 28 29 28 28 28 29 29 30 31 31 31 31 31 31 31 31
33 33 33 33 32 32 33 33 34 36 37 36 35 36 38 40 37 33 32 33 32 33 33 33 31 32 30 31 29 29 30 31 31 31 32 32 32 31 31 29 29 28 28 27 29 30 27 27 26 24 23 24 25 25 25 26 27 27 27 27 26 26 27 27 28 28 28 29 28 29 29 29 29 29 30 30 30 31 31 31 31 31 31 31 31
34 33 33 33 33 32 33 33 32 32 33 32 32 32 32 33 32 32 32 33 33 33 33 36 34 32 31 31 30 31 30 30 30 31 31 31 31 31 30 30 29 30 29 30 30 29 29 27 25 24 25 23 24 27 26 25 25 25 26 27 27 27 27 27 28 28 28 29 29 29 29 29 29 29 30 30 31 30 30 30 30 31 31 30 31
34 33 33 33 33 32 33 33 32 32 33 32 33 32 33 33 32 33 32 32 32 32 32 32 31 32 31 31 31 31 31 31 31 31 31 31 31 30 30 30 29 28 29 29 29 29 28 27 26 25 25 25 26 26 27 27 26 26 26 28 27 26 26 27 28 28 28 28 29 29 29 29 29 30 30 30 31 29 29 29 30 30 30 30 30
33 33 33 33 33 33 33 32 32 32 33 32 32 32 32 32 32 32 32 32 32 32 32 32 32 33 33 32 32 32 32 32 32 32 31 31 31 30 30 31 30 30 29 29 29 30 29 29 28 26 26 26 26 27 28 28 28 28 28 27 27 26 26 26 27 28 28 29 29 29 30 30 30 30 30 30 30 29 29 30 30 30 30 31 30
32 33 33 33 33 33 33 32 32 32 32 32 32 32 32 32 32 32 32 32 32 33 33 33 34 34 34 33 33 33 33 33 32 32 31 31 30 31 30 30 30 29 29 29 29 29 29 30 29 28 27 27 27 28 27 27 28 28 27 26 26 26 26 26 27 28 28 28 28 29 29 30 30 30 30 30 30 30 29 29 29 30 30 30 30
31 31 32 32 33 33 33 33 32 32 32 32 32 32 32 32 32 32 32 33 33 33 33 34 35 36 36 36 36 36 36 35 35 33 33 32 31 31 30 30 30 30 30 29 29 29 29 29 27 27 27 27 27 27 26 27 26 26 26 26 26 25 25 26 26 27 28 28 29 29 29 30 31 31 30 30 29 28 29 29 28 29 29 29 30